[[{"header":{"parameterUnit":"m.s-1","parameterCategory":1,"la1":30.2992,"la2":30.254,"lo1":-89.0895,"lo2":-89.0443,"dy":0.0025,"dx":0.0025,"nx":19,"ny":19,"refTime":"2026-05-12T03:00:00:Z","depth":0,"parameterNumber":2,"parameterNumberName":"U-component_of_WINDS"},"data":[0,0,0,-3.3591,-3.3593,-3.3665,-3.3665,-3.3789,-3.379,0,0,0,0,0,0,0,0,0,0,0,-3.3588,-3.359,-3.359,-3.3593,-3.3665,-3.3665,-3.3789,-3.379,0,0,0,0,0,0,0,0,0,0,0,-3.3588,-3.3589,-3.3591,-3.3593,-3.3665,-3.3665,-3.3788,-3.3723,0,0,0,0,0,0,0,0,0,0,-3.3647,-3.3664,-3.3589,-3.3591,-3.3594,-3.3665,-3.3665,-3.3719,-3.3727,-3.377,0,-3.3813,0,-3.3804,-3.3801,-3.3801,0,0,0,-3.3579,-3.3658,-3.366,-3.3592,-3.3594,-3.3665,-3.3628,-3.3723,-3.3732,-3.378,-3.3815,-3.3818,-3.3806,-3.3802,-3.3802,-3.4099,-3.4101,0,0,-3.3575,-3.3612,-3.3654,-3.3666,-3.3657,-3.3626,-3.3631,-3.3728,-3.3768,-3.3815,-3.3821,-3.3808,-3.3803,-3.3804,-3.4097,-3.4099,0,0,0,-3.3573,-3.361,-3.3608,-3.3662,-3.3673,-3.3629,-3.3634,-3.3763,-3.376,-3.3822,-3.3809,-3.3804,-3.3805,-3.4095,-3.4098,-3.4238,0,0,0,-3.357,-3.3608,-3.3608,-3.3631,-3.3672,-3.3719,-3.3668,-3.3753,-3.3763,-3.3809,-3.3804,-3.3807,-3.4092,-3.4096,-3.4229,-3.4299,0,0,0,-3.3577,-3.3609,-3.3626,-3.3633,-3.3665,-3.3716,-3.3718,-3.3754,-3.3756,-3.3801,-3.3807,-3.4091,-3.4096,-3.4221,-3.4286,-3.439,0,0,0,-3.3596,-3.3749,-3.3629,-3.3794,-3.3665,-3.3802,-3.3717,-3.3816,-3.3872,-3.3804,-3.4093,-3.4097,-3.4219,-3.4278,-3.4382,-3.4487,-3.4533,0,0,-3.381,-3.3776,-3.387,-3.3765,-3.3933,-3.3787,-3.3975,-3.399,-3.396,-3.4054,-3.4061,-3.4232,-3.4285,-3.4388,-3.4774,-3.4811,0,0,0,-3.395,-3.4019,-3.4055,-3.4109,-3.4124,-3.4143,-3.4125,-3.413,-3.4208,-3.4016,-3.4294,-3.4325,-3.4384,-3.4433,-3.4464,-3.4514,-3.412,-3.412,-3.4119,-3.4309,-3.4261,-3.4415,-3.4377,-3.443,-3.4409,-3.4449,-3.4452,-3.4388,-3.4455,-3.4485,-3.4724,-3.4782,-3.4806,-3.4858,-3.4533,-3.4533,-3.4534,-3.4534,-3.462,-3.4711,-3.4621,-3.4739,-3.4688,-3.4786,-3.4771,-3.4723,-3.4807,-3.4698,-3.4748,-3.4636,-3.4848,-3.4891,-3.4544,-3.4542,-3.4541,-3.454,-3.4539,-3.4852,-3.4888,-3.4891,-3.4965,-3.5027,-3.4981,-3.5067,-3.5016,-3.4969,-3.5018,-3.5045,-3.5042,-3.5036,-3.5033,-3.5034,-3.5035,-3.5036,-3.5036,-3.5037,-3.5094,-3.5093,-3.5171,-3.5199,-3.5228,-3.5259,-3.5238,-3.5265,-3.5282,-3.5238,-3.5238,-3.517,-3.4876,-3.4806,-3.505,-3.5047,-3.5046,-3.5044,-3.5044,-3.5434,-3.5349,-3.547,-3.5499,-3.5528,-3.5594,-3.5526,-3.5585,-3.5599,-3.5643,-3.5562,-3.5353,-3.5315,-3.5289,-3.5231,-3.557,-3.557,-3.557,-3.557,-3.5634,-3.5608,-3.5721,-3.5771,-3.5812,-3.5764,-3.5904,-3.5889,-3.586,-3.5866,-3.5809,-3.5725,-3.5701,-3.5678,-3.5644,-3.5589,-3.6012,-3.6012,-3.6012,-3.5841,-3.5818,-3.5947,-3.5917,-3.5936,-3.5953,-3.6083,-3.6144,-3.6092,-3.6029,-3.5871,-3.5852,-3.5717,-3.5674,-3.5613,-3.5561,-3.5459,0,0]},{"header":{"parameterUnit":"m.s-1","parameterCategory":1,"la1":30.2992,"la2":30.254,"lo1":-89.0895,"lo2":-89.0443,"dy":0.0025,"dx":0.0025,"nx":19,"ny":19,"refTime":"2026-05-12T03:00:00:Z","depth":0,"parameterNumber":3,"parameterNumberName":"V-component_of_WINDS"},"data":[0,0,0,-5.2986,-5.2987,-5.2995,-5.2995,-5.3027,-5.3027,0,0,0,0,0,0,0,0,0,0,0,-5.2998,-5.2999,-5.2986,-5.2987,-5.2995,-5.2995,-5.3027,-5.3027,0,0,0,0,0,0,0,0,0,0,0,-5.2997,-5.2998,-5.2999,-5.2987,-5.2995,-5.2995,-5.3027,-5.3013,0,0,0,0,0,0,0,0,0,0,-5.3001,-5.3026,-5.2998,-5.2999,-5.2987,-5.2995,-5.2995,-5.3012,-5.3014,-5.3033,0,-5.3054,0,-5.3042,-5.3031,-5.3031,0,0,0,-5.2976,-5.3024,-5.3014,-5.2999,-5.2987,-5.2995,-5.2988,-5.3012,-5.3015,-5.3036,-5.3055,-5.3055,-5.3042,-5.3031,-5.3032,-5.3177,-5.3179,0,0,-5.2976,-5.3007,-5.3012,-5.3016,-5.3017,-5.2988,-5.2989,-5.3013,-5.3036,-5.3055,-5.3055,-5.3043,-5.3032,-5.3032,-5.3176,-5.3178,0,0,0,-5.2982,-5.3007,-5.2995,-5.3015,-5.3015,-5.2989,-5.2989,-5.3035,-5.3028,-5.3056,-5.3043,-5.3032,-5.3033,-5.3175,-5.3177,-5.3263,0,0,0,-5.2981,-5.301,-5.2996,-5.3015,-5.3015,-5.3025,-5.3011,-5.3027,-5.3029,-5.3043,-5.3032,-5.3033,-5.3174,-5.3176,-5.3258,-5.3298,0,0,0,-5.2993,-5.3011,-5.3017,-5.3016,-5.3021,-5.3024,-5.3019,-5.3026,-5.3022,-5.3031,-5.3033,-5.3173,-5.3175,-5.3253,-5.329,-5.3343,0,0,0,-5.3014,-5.3095,-5.3019,-5.3105,-5.3021,-5.3078,-5.3018,-5.3059,-5.3078,-5.3032,-5.3174,-5.3177,-5.3252,-5.3286,-5.3339,-5.3392,-5.3418,0,0,-5.3134,-5.3111,-5.3159,-5.3091,-5.3169,-5.3074,-5.3165,-5.3153,-5.3126,-5.3162,-5.3165,-5.3259,-5.329,-5.3342,-5.3555,-5.3576,0,0,0,-5.3207,-5.3242,-5.3256,-5.3275,-5.3268,-5.3264,-5.3236,-5.3231,-5.3259,-5.3151,-5.3293,-5.331,-5.334,-5.3364,-5.3381,-5.3403,-5.319,-5.3189,-5.3189,-5.3421,-5.3381,-5.3457,-5.3418,-5.3438,-5.3406,-5.3418,-5.3406,-5.3362,-5.3396,-5.3405,-5.354,-5.3569,-5.3582,-5.3606,-5.3432,-5.3433,-5.3433,-5.3433,-5.3591,-5.3632,-5.357,-5.3621,-5.3579,-5.3621,-5.3594,-5.3561,-5.3593,-5.353,-5.3554,-5.3485,-5.3606,-5.3624,-5.3439,-5.3438,-5.3438,-5.3437,-5.3437,-5.3724,-5.3736,-5.373,-5.3751,-5.3773,-5.3731,-5.3765,-5.3725,-5.3689,-5.3713,-5.3717,-5.3715,-5.3707,-5.3718,-5.3719,-5.3719,-5.3719,-5.372,-5.372,-5.3864,-5.3853,-5.3886,-5.3884,-5.389,-5.3893,-5.3862,-5.3867,-5.3862,-5.383,-5.383,-5.3781,-5.3626,-5.3586,-5.3727,-5.3726,-5.3725,-5.3724,-5.3724,-5.4046,-5.3998,-5.4049,-5.4055,-5.4049,-5.4071,-5.4021,-5.4034,-5.4032,-5.405,-5.3995,-5.3888,-5.3862,-5.3848,-5.3814,-5.4005,-5.4005,-5.4005,-5.4005,-5.4157,-5.414,-5.4181,-5.4193,-5.42,-5.416,-5.4217,-5.4193,-5.4162,-5.4158,-5.4125,-5.4078,-5.4066,-5.4046,-5.4028,-5.3996,-5.4229,-5.4229,-5.4229,-5.4265,-5.4247,-5.4303,-5.4271,-5.4263,-5.4257,-5.4308,-5.4323,-5.4278,-5.4238,-5.4153,-5.4144,-5.4068,-5.4046,-5.4002,-5.3974,-5.3915,0,0]}]]